Location: Cuiry
(49.3858°N, 3.7708°E)
Time: 00:52:03
(UTC+00:00)

SJ 16-02 - Pass Details

Date: 12 January 2026
Orbit: 582 x 594 km, 75.0° (Epoch: 17 February)

Event Time Altitude Azimuth Distance (km) Brightness Sun altitude
Rises 17:35:30 0° 334° (NNW) 2,824 4.9 -13.4°
Reaches altitude 10° 17:37:46 10° 329° (NNW) 1,921 4.1 -13.8°
Maximum altitude 17:41:54 50° 254° (WSW) 752 2.2 -14.4°
Drops below altitude 10° 17:46:02 10° 179° (S) 1,913 4.1 -15.0°
Sets 17:48:17 0° 174° (S) 2,811 4.9 -15.4°
